Tracking 34151 objects as of 20-May-2026
HD Live streaming from Space Station
objects crossing your sky now

HULIANWANG DIGUI-158

Track HULIANWANG DIGUI-158 now!
10-day predictions


NORAD ID: 68132
Int'l Code: 2026-047D
Perigee: 1,156.3 km
Apogee: 1,156.6 km
Inclination: 50.0 °
Period: 108.3 minutes
Semi major axis: 7527 km
RCS: Unknown
Launch date: March 12, 2026
Source: People's Republic of China (PRC)
Launch site: Wenchang Satellite Launch Center (WSC)
Your satellite tracking list
Your tracking list is empty




NASA's NSSDC Master Catalog

Two Line Element Set (TLE):
1 68132U 26047D   26140.31271171 -.00000107  00000-0  36317-4 0  9998
2 68132  50.0025 156.1546 0000214 356.4101   3.6769 13.29330209  9359
Source of the keplerian elements: AFSPC